Weather History for St-Nazaire, France

Change the Weather History Date:

Monday, November 26, 2012

  Actual Average Record
Temperature  
Mean Temperature 50 °F -  
Max Temperature 55 °F 48 °F 60 °F (2004)
Min Temperature 44 °F 39 °F 26 °F (2005)
Degree Days  
Heating Degree Days 14    
Moisture  
Dew Point 43 °F    
Average Humidity 73    
Maximum Humidity 87    
Minimum Humidity 62    
Precipitation  
Precipitation 0.00 in - - ()
Sea Level Pressure  
Sea Level Pressure 29.68 in    
Wind  
Wind Speed 17 mph ()    
Max Wind Speed 25 mph    
Max Gust Speed 32 mph    
Visibility 6.2 miles    
Events Rain    
Averages and records for this station are not official NWS values.
T = Trace of Precipitation, MM = Missing Value Source: Averaged Metar Reports

Daily Weather History Graph

Daily Weather History Graph

Search for Another Location

Airport:

Trip Planner

Search our weather history database for the weather conditions in past years. The results will help you decide how hot, cold, wet, or windy it might be!

Date:

Astronomy

Nov. 26, 2012 Rise Set
Actual Time 8:28 AM CET 5:23 PM CET
Civil Twilight 7:54 AM CET 5:57 PM CET
Nautical Twilight 7:16 AM CET 6:35 PM CET
Astronomical Twilight 6:39 AM CET 7:12 PM CET
Moon 4:10 PM CET (11/26) 6:20 AM CET (11/26)
Length of Visible Light 10h 03m
Length of Day
8h 54m
Waxing Gibbous, 96% of the Moon is Illuminated
Nov 26
Waxing Gibbous
Nov 28
Full
Dec 6
Last Quarter
Dec 13
New
Dec 20
First Quarter

Hourly Weather History & Observations

Time (CET) Temp. Windchill Dew Point Humidity Pressure Visibility Wind Dir Wind Speed Gust Speed Precip Events Conditions
12:00 AM 53.6 °F - 46.4 °F 77% 29.71 in 6.2 mi SSW 20.7 mph - N/A   Unknown
12:30 AM 55.4 °F - 46.4 °F 72% 29.71 in 6.2 mi SW 23.0 mph - N/A   Mostly Cloudy
1:00 AM 55.4 °F - 46.4 °F 72% 29.71 in 6.2 mi SSW 23.0 mph - N/A   Overcast
1:30 AM 55.4 °F - 46.4 °F 72% 29.68 in 6.2 mi SSW 25.3 mph - N/A   Overcast
2:00 AM 51.8 °F - 46.4 °F 82% 29.68 in 6.2 mi SW 21.9 mph - N/A Rain Light Rain
2:30 AM 53.6 °F - 48.2 °F 82% 29.65 in 6.2 mi SW 23.0 mph - N/A   Mostly Cloudy
3:00 AM 53.6 °F - 48.2 °F 82% 29.65 in 6.2 mi SW 17.3 mph - N/A   Overcast
3:30 AM 53.6 °F - 46.4 °F 77% 29.65 in 6.2 mi SW 18.4 mph - N/A   Overcast
4:00 AM 53.6 °F - 44.6 °F 72% 29.62 in 6.2 mi SW 24.2 mph - N/A   Mostly Cloudy
4:30 AM 53.6 °F - 46.4 °F 77% 29.62 in 6.2 mi SW 19.6 mph - N/A   Mostly Cloudy
5:00 AM 53.6 °F - 44.6 °F 72% 29.62 in 6.2 mi SW 19.6 mph 31.1 mph N/A   Mostly Cloudy
5:30 AM 53.6 °F - 46.4 °F 77% 29.62 in 6.2 mi SW 23.0 mph - N/A   Mostly Cloudy
6:00 AM 53.6 °F - 46.4 °F 77% 29.62 in 6.2 mi SW 20.7 mph 32.2 mph N/A   Mostly Cloudy
6:30 AM 53.6 °F - 46.4 °F 77% 29.62 in 6.2 mi WSW 19.6 mph - N/A   Partly Cloudy
7:00 AM 53.6 °F - 44.6 °F 72% 29.62 in 6.2 mi WSW 16.1 mph - N/A   Scattered Clouds
7:30 AM 51.8 °F - 46.4 °F 82% 29.65 in 6.2 mi West 18.4 mph - N/A   Mostly Cloudy
8:00 AM 51.8 °F - 42.8 °F 71% 29.65 in 6.2 mi West 19.6 mph - N/A   Mostly Cloudy
8:30 AM 51.8 °F - 41.0 °F 67% 29.65 in 6.2 mi West 17.3 mph - N/A   Unknown
9:00 AM 51.8 °F - 41.0 °F 67% 29.68 in 6.2 mi West 17.3 mph - N/A   Overcast
9:30 AM 50.0 °F - 41.0 °F 71% 29.68 in 6.2 mi West 17.3 mph - N/A   Mostly Cloudy
10:00 AM 50.0 °F - 42.8 °F 76% 29.71 in 6.2 mi West 13.8 mph - N/A   Mostly Cloudy
10:30 AM 51.8 °F - 41.0 °F 67% 29.71 in 6.2 mi West 19.6 mph - N/A   Mostly Cloudy
11:00 AM 51.8 °F - 41.0 °F 67% 29.71 in 6.2 mi West 18.4 mph - N/A   Mostly Cloudy
11:30 AM 51.8 °F - 41.0 °F 67% 29.71 in 6.2 mi West 18.4 mph - N/A   Mostly Cloudy
12:00 PM 51.8 °F - 41.0 °F 67% 29.71 in 6.2 mi West 20.7 mph - N/A   Mostly Cloudy
12:30 PM 53.6 °F - 41.0 °F 62% 29.71 in 6.2 mi West 19.6 mph - N/A   Scattered Clouds
1:00 PM 51.8 °F - 41.0 °F 67% 29.71 in 6.2 mi West 18.4 mph - N/A   Mostly Cloudy
1:30 PM 51.8 °F - 41.0 °F 67% 29.71 in 6.2 mi West 18.4 mph - N/A   Scattered Clouds
2:00 PM 51.8 °F - 41.0 °F 67% 29.68 in 6.2 mi WSW 18.4 mph - N/A   Partly Cloudy
2:30 PM 53.6 °F - 41.0 °F 62% 29.68 in 6.2 mi West 18.4 mph - N/A   Mostly Cloudy
3:00 PM 51.8 °F - 41.0 °F 67% 29.68 in 6.2 mi West 19.6 mph - N/A   Mostly Cloudy
3:30 PM 51.8 °F - 42.8 °F 71% 29.68 in 6.2 mi West 18.4 mph - N/A   Mostly Cloudy
4:00 PM 51.8 °F - 41.0 °F 67% 29.68 in 6.2 mi West 13.8 mph - N/A   Mostly Cloudy
4:30 PM 50.0 °F - 41.0 °F 71% 29.68 in 6.2 mi West 16.1 mph - N/A   Partly Cloudy
5:00 PM 50.0 °F - 41.0 °F 71% 29.68 in 6.2 mi West 13.8 mph - N/A   Partly Cloudy
5:30 PM 50.0 °F - 41.0 °F 71% 29.68 in 6.2 mi West 15.0 mph - N/A   Mostly Cloudy
6:00 PM 48.2 °F - 41.0 °F 76% 29.68 in 6.2 mi West 11.5 mph - N/A   Scattered Clouds
6:30 PM 48.2 °F - 41.0 °F 76% 29.71 in 6.2 mi West 11.5 mph - N/A   Partly Cloudy
7:00 PM 46.4 °F 42.4 °F 39.2 °F 76% 29.71 in 6.2 mi West 8.1 mph - N/A   Unknown
7:30 PM 46.4 °F 42.4 °F 39.2 °F 76% 29.71 in 6.2 mi West 8.1 mph - N/A   Unknown
8:00 PM 46.4 °F 42.4 °F 39.2 °F 76% 29.71 in 6.2 mi West 8.1 mph - N/A   Unknown
8:30 PM 46.4 °F 42.4 °F 39.2 °F 76% 29.71 in 6.2 mi West 8.1 mph - N/A   Unknown
9:00 PM 46.4 °F 42.4 °F 39.2 °F 76% 29.71 in 6.2 mi West 8.1 mph - N/A   Scattered Clouds
9:30 PM 48.2 °F - 41.0 °F 76% 29.71 in 6.2 mi West 10.4 mph - N/A   Partly Cloudy
10:00 PM 46.4 °F 41.5 °F 41.0 °F 81% 29.68 in 6.2 mi West 10.4 mph - N/A   Partly Cloudy
10:30 PM 46.4 °F 41.9 °F 41.0 °F 81% 29.68 in 6.2 mi West 9.2 mph - N/A   Partly Cloudy
11:00 PM 46.4 °F 42.9 °F 39.2 °F 76% 29.68 in 6.2 mi West 6.9 mph - N/A   Unknown
11:30 PM 44.6 °F 41.4 °F 41.0 °F 87% 29.68 in 6.2 mi West 5.8 mph - N/A   Partly Cloudy